カタログに戻る

GORIZONT 23

運用中通信GEO
NORAD 21533·PAYLOAD·🇷🇺 Russia

打ち上げ Jul 1, 1991 から Baikonur Cosmodrome

Loading…

TLE

最新Source: Space-Track

元期: Sep 14, 2026, 15:23 UTC

1 21533U 91046A   26257.64131373 -.00000042  00000-0  00000-0 0  9991
2 21533  13.6746 340.8532 0007592 323.2934 189.0789  0.98907193 47578

AllMySatでGORIZONT 23をリアルタイム追跡

Download on the App Store